Flag for Sweden Weather past 2 weeks in Malmö, Sweden

Now
43 °F

Fog.


Feels Like: 39 °F
Forecast: 37 / 45 °F
Wind: 6 mph from South

Location: Malmo / Sturup

Current Time: Mar 27, 2015 at 5:08:17 PM

Latest Report: Mar 27, 2015 at 4:20 PM


Visibility: 6 mi

Pressure: 29.86 "Hg

Humidity: 81%

Dew point: 37 °F

Location of MalmöLocation

Historic Weather in Malmö — Graph

°F

Malmö temperature yesterday

Maximum temperature yesterday: 46 °F (at 9:20 AM)
Minimum temperature yesterday: 37 °F (at 12:20 AM)
Average temperature yesterday: 42 °F

Past Weeks' High & Low Weather Summary

 TemperatureHumidityPressure
High52 °F (Mar 17, 2:20 PM)100% (Mar 20, 6:20 PM)30.66 "Hg (Mar 20, 6:20 PM)
Low19 °F (Mar 22, 6:20 AM)28% (Mar 19, 3:50 PM)29.65 "Hg (Mar 26, 6:20 AM)
Average39 °F75%30.23 "Hg
* Reported Mar 12 3:20 PM — Mar 27 3:50 PM, Malmö, Weather by CustomWeather, © 2015

Note: Actual official high and low records may vary slightly from our data, if they occured in-between our weather recording intervals... More about our weather records

Advertising

Malmö weather history for previous 24 hours

 ConditionsComfort  
Time TempWeatherWind HumidityBarometerVisibility
3:50 PM
Fri, Mar 27
43 °FLight rain. Partly sunny.7 mph81%29.86 "HgN/A
3:20 PM43 °FPartly sunny.5 mph76%29.86 "HgN/A
2:50 PM45 °FPartly sunny.5 mph71%29.86 "HgN/A
2:20 PM43 °FFog.5 mph71%29.86 "Hg6 mi
1:50 PM43 °FLight rain. Partly sunny.7 mph76%29.83 "HgN/A
1:20 PM45 °FFog.7 mph71%29.83 "Hg6 mi
12:50 PM45 °FPartly sunny.6 mph71%29.83 "HgN/A
12:20 PM45 °FSunny.7 mph71%29.83 "Hg10 mi
11:50 AM45 °FPartly sunny.5 mph71%29.83 "HgN/A
11:20 AM45 °FBroken clouds.6 mph71%29.83 "HgN/A
10:50 AM45 °FPartly sunny.6 mph71%29.80 "HgN/A
10:20 AM45 °FBroken clouds.6 mph71%29.80 "HgN/A
9:50 AM45 °FSunny.6 mph71%29.80 "Hg10 mi
9:20 AM45 °FSunny.1 mph71%29.80 "Hg10 mi
8:50 AM45 °FScattered clouds.No wind71%29.80 "HgN/A
8:20 AM41 °FFog.No wind93%29.80 "Hg6 mi
7:50 AM39 °FFog.No wind93%29.77 "Hg5 mi
7:20 AM37 °FFog.3 mph93%29.77 "Hg3 mi
6:50 AM36 °FOvercast.3 mph100%29.77 "HgN/A
6:20 AM36 °FFog.5 mph93%29.77 "Hg5 mi
5:50 AM34 °FFog.1 mph93%29.74 "Hg5 mi
5:20 AM34 °FPassing clouds.No wind100%29.74 "HgN/A
4:50 AM36 °FOvercast.3 mph93%29.74 "HgN/A
4:20 AM36 °FFog.2 mph93%29.74 "HgN/A
3:50 AM36 °FFog.1 mph93%29.74 "Hg5 mi
3:20 AM34 °FFog.2 mph93%29.74 "Hg5 mi
2:50 AM34 °FFog.No wind100%29.71 "HgN/A
2:20 AM36 °FClear.No wind93%29.71 "Hg10 mi
1:50 AM36 °FClear.1 mph93%29.71 "Hg10 mi
12:50 AM36 °FClear.5 mph93%29.71 "Hg10 mi
12:20 AM36 °FClear.5 mph93%29.71 "Hg10 mi
11:50 PM
Thu, Mar 26
37 °FClear.3 mph87%29.71 "Hg10 mi
11:20 PM37 °FClear.5 mph87%29.71 "Hg10 mi
10:50 PM39 °FClear.5 mph87%29.71 "Hg10 mi
10:20 PM39 °FClear.6 mph81%29.71 "Hg10 mi
9:50 PM39 °FClear.6 mph87%29.71 "Hg10 mi
9:20 PM39 °FPassing clouds.5 mph87%29.71 "HgN/A
8:50 PM39 °FClear.5 mph87%29.71 "Hg10 mi
8:20 PM39 °FPassing clouds.6 mph87%29.71 "HgN/A
7:50 PM39 °FPassing clouds.8 mph87%29.71 "HgN/A
7:20 PM39 °FFog.7 mph87%29.71 "Hg6 mi
6:50 PM41 °FFog.8 mph81%29.71 "Hg6 mi
6:20 PM41 °FFog.10 mph81%29.68 "Hg6 mi
5:50 PM41 °FFog.12 mph87%29.68 "Hg6 mi
5:20 PM41 °FFog.12 mph87%29.68 "Hg6 mi
Weather by CustomWeather, © 2015

See weather overviewHow to use our weather pages